Regional Weather Roundup
Issued by NWS

Home | Current Version | Previous Version | Text Only | Print | Product List | Glossary Off
Versions: 1 2 3 4 5 6 7 8 9 10 11 12 13 14 15 16 17 18 19 20 21 22 23 24 25 26 27 28 29 30 31 32 33 34 35 36 37 38 39 40 41 42 43 44 45 46 47 48 49 50

000
ASUS45 KBOU 212007
RWRCO

WEATHER ROUNDUP FOR COLORADO
NATIONAL WEATHER SERVICE DENVER/BOULDER CO
100 PM MST SUN DEC 21 2014

NOTE: "FAIR" INDICATES FEW OR NO CLOUDS BELOW 12000 FEET WITH NO
SIGNIFICANT WEATHER AND/OR OBSTRUCTIONS TO VISIBILITY.

COZ001>005-013-030-031-212100-
...NORTHWEST COLORADO...

CITY           SKY/WX    TMP DP  RH WIND       PRES   REMARKS
CRAIG          CLOUDY    37  29  72 SW24      29.76F
HAYDEN         CLOUDY    34  27  75 N7        29.76F WCI  28
MEEKER         LGT SNOW  33  30  88 N6        29.85F FOG     WCI  28
MOUNT WERNER   NOT AVBL
STEAMBOAT SPGS CLOUDY    29  28  94 NE3       29.76F
WALDEN         CLOUDY    30  23  74 SW16      29.69F WCI  19
$$

COZ006>008-011-212100-
...WEST CENTRAL VALLEYS...

CITY           SKY/WX    TMP DP  RH WIND       PRES   REMARKS
GRAND JUNCTION CLOUDY    33  32  96 NW5       29.97F WCI  29
MONTROSE       CLOUDY    33  30  88 W5        29.97F WCI  29
EAGLE          LGT SNOW  34  30  86 W5        29.88F FOG     WCI  30
RIFLE          FLURRIES  33  29  85 SW7       29.91F WCI  27
DELTA          MIX PCPN  36  33  88 CALM      29.96F
NUCLA          CLOUDY    36  30  80 E3        30.04F
$$

COZ017>023-064>068-212100-
...SOUTHWEST COLORADO...

CITY           SKY/WX    TMP DP  RH WIND       PRES   REMARKS
DURANGO        CLOUDY    34  27  75 VRB6      29.98F WCI  29
CORTEZ         MOSUNNY   41  30  65 NW12      30.02F
PAGOSA SPRINGS CLOUDY    32  24  71 CALM      29.99S
TELLURIDE      LGT SNOW  31  28  91 W8        30.02F VSB 1   WCI  23
WOLF CREEK PAS CLOUDY    21  21 100 MISG      29.97R FOG
$$

COZ009-010-012-014-032>034-037-058>063-212100-
...CENTRAL COLORADO...

CITY           SKY/WX    TMP DP  RH WIND       PRES   REMARKS
ASPEN          LGT SNOW  26  24  92 N3        29.85F VSB 1
BUENA VISTA    CLOUDY    35  22  58 W21G36    29.77F WCI  24
COPPER MTN     CLOUDY    23  18  80 W22       29.78F WCI   8
BERTHOUD PASS  HVY SNOW  18  12  79 MISG      29.65R VSB<1/4
COTTONWOOD PAS LGT SNOW  30  25  80 N14G30    29.76F VSB 3/4 WCI  20
GUNNISON       CLOUDY    27  21  80 N3        29.92F VSB 1
KREMMLING      SNOW      32  28  86 W8        29.77F VSB 1/2 WCI  25
LEADVILLE      SNOW      23  20  88 NW12      29.77F VSB 1/2 WCI  12
SALIDA         CLOUDY    42  21  41 W22G31    29.85F
SUNLIGHT       SNOW     N/A N/A N/A CALM      29.87F VSB 1/4
WILKERSON PASS FOG       23  21  93 W14G28    29.77F VSB 3/4 WCI  11
$$

COZ069>075-212100-
...SAN LUIS VALLEY/SANGRE DE CRISTO MOUNTAINS...

CITY           SKY/WX    TMP DP  RH WIND       PRES   REMARKS
ALAMOSA        PTSUNNY   38  20  48 S3        29.87F
LA VETA PASS   NOT AVBL
SAGUACHE       CLOUDY    36  21  55 NE5       29.87F
$$

COZ035-036-038>040-212100-
...NORTHERN COLORADO FRONT RANGE...

CITY           SKY/WX    TMP DP  RH WIND       PRES   REMARKS
DENVER INTL AP CLOUDY    50  21  32 W14       29.56F
DMNS CITY PARK   N/A     52  20  28 NW5G13    29.57F
AURORA         PTSUNNY   50  20  30 W6        29.59F
FRONT RANGE AP CLOUDY    52  23  32 W7        29.58F
ERIE MUNI ARPT   N/A     54  21  27 NW15G26   29.56F
BOULDER MUN AP PTSUNNY   50  23  34 W23G35    29.53F
CENTENNIAL     CLOUDY    49  22  34 SW13      29.59F
BROOMFIELD     PTSUNNY   50  23  34 W22G36    29.57F
FORT COLLINS   PTSUNNY   48  27  43 NE7       29.56S
LONGMONT       PTSUNNY   53  25  33 W18G29    29.56F
$$

COZ041-046-047-076>085-087-088-212100-
...PIKES PEAK/PALMER DIVIDE AND SOUTHERN FOOTHILLS...

CITY           SKY/WX    TMP DP  RH WIND       PRES   REMARKS
COLO. SPRINGS  CLOUDY    44  17  33 CALM      29.63F
A. F. ACADEMY  CLOUDY    47  18  31 NW18      29.63S
ELLICOTT       NOT AVBL
FALCON         CLOUDY    45  18  33 W16G25    29.64F
FORT CARSON    CLOUDY    42  19  40 NE1       29.61F
LIMON          CLOUDY    50  19  29 W6        29.59F
MONUMENT HILL  CLOUDY    41  21  45 W10       29.62F
TRINIDAD       CLOUDY    50  22  33 S7        29.65F
$$

COZ042>045-048>051-090-091-212100-
...NORTHEAST COLORADO...

CITY           SKY/WX    TMP DP  RH WIND       PRES   REMARKS
GREELEY ARPT   CLOUDY    43  25  49 CALM      29.55F
AKRON          CLOUDY    43  27  53 SW12      29.55F
BURLINGTON     PTSUNNY   48  28  46 S10       29.58F
WRAY           CLOUDY    44  33  64 SW3       29.56F
STERLING       CLOUDY    36  32  87 CALM      29.55F
HOLYOKE        CLOUDY    41  32  70 SW5       29.56F
FORT MORGAN    CLOUDY    37  28  69 W3        29.57S
$$

COZ086-089-092>099-212100-
...SOUTHEAST COLORADO...

CITY           SKY/WX    TMP DP  RH WIND       PRES   REMARKS
PUEBLO         CLOUDY    49  21  33 SW12      29.59F
LA JUNTA       CLOUDY    48  29  47 CALM      29.60F
LAMAR          MOSUNNY   54  27  35 CALM      29.57F
SPRINGFIELD      N/A     56  19  23 SW9       29.61F
$$



USA.gov is the U.S. government's official web portal to all federal, state and local government web resources and services.